Location: Sihaung
(22.8641°N, 94.0549°E)
Time: 18:01:42
(UTC+00:00)

YAOGAN 6 - Pass Details

Date: 03 March 2021
Orbit: 464 x 503 km, 97.0° (Epoch: 13 April)

Event Time Altitude Azimuth Distance (km) Brightness Sun altitude
Rises 23:18:43 0° 8° (N) 2,505 6.3 -11.0°
Reaches altitude 10° 23:20:47 10° 6° (N) 1,622 5.3 -10.5°
Maximum altitude 23:24:15 72° 282° (WNW) 491 2.4 -9.7°
Drops below altitude 10° 23:27:41 10° 197° (SSW) 1,606 5.1 -8.9°
Sets 23:29:43 0° 195° (SSW) 2,478 6.0 -8.4°
